[[{"header":{"parameterUnit":"m.s-1","parameterCategory":1,"la1":30.2991,"la2":30.254,"lo1":-89.0895,"lo2":-89.0444,"dy":0.0017,"dx":0.0017,"nx":28,"ny":28,"refTime":"2024-05-27T03:00:00:Z","depth":0,"parameterNumber":2,"parameterNumberName":"U-component_of_WINDS"},"data":[0,0,0,0,0,0,0,0,0,0,0,0,0,0,0,0,0,0,0,0,0,0,0,0,0,0,0,0,0,0,0,0,0,0,0,0,0,0,0,0,0,0,0,0,0,0,0,0,0,0,0,0,0,0,0,0,0,0,1.0909,1.091,0,1.1067,1.1069,1.107,1.1139,1.1139,1.1139,1.1139,1.1303,1.1307,1.1312,0,0,0,0,0,0,0,0,0,0,0,0,0,1.0671,1.0675,1.0908,1.091,1.0912,1.1066,1.1069,1.1071,1.1139,1.1139,1.1139,1.1138,1.1301,1.1307,1.1312,0,0,0,0,0,0,0,0,0,0,0,0,0,1.0796,1.0676,1.0908,1.0965,1.0972,1.1066,1.1069,1.1071,1.1139,1.1139,1.1139,1.1138,1.1299,1.1306,1.1313,1.1363,0,0,1.1334,1.1337,0,0,0,0,0,0,0,0,1.0789,1.0805,1.0955,1.0961,1.0969,1.1083,1.1045,1.1169,1.1139,1.1076,1.1139,1.1138,1.123,1.1243,1.1273,1.1371,1.1378,1.1335,1.1339,1.1342,1.1344,0,0,0,0,0,0,0,1.078,1.0798,1.0971,1.0957,1.0966,1.0984,1.1002,1.1069,1.1153,1.1081,1.1087,1.1104,1.1234,1.1266,1.1277,1.138,1.1334,1.1341,1.1345,1.1347,1.153,1.1531,0,0,0,0,0,0,1.0761,1.079,1.0966,1.0976,1.0876,1.0989,1.1008,1.1047,1.1153,1.1168,1.1105,1.1107,1.1255,1.1269,1.1283,1.1351,1.1342,1.1348,1.1352,1.153,1.1531,1.1531,0,0,0,0,0,0,1.0756,1.0776,1.096,1.0885,1.091,1.0993,1.1036,1.105,1.1083,1.117,1.1186,1.1122,1.1255,1.1274,1.1343,1.1358,1.1351,1.1358,1.1529,1.153,1.1531,1.1486,0,0,0,0,0,0,1.0749,1.0774,1.0792,1.0885,1.0913,1.1015,1.1037,1.1053,1.1094,1.1099,1.1191,1.1205,1.1256,1.1333,1.135,1.1367,1.1363,1.1528,1.1529,1.1531,1.1486,1.1485,1.1484,0,0,0,0,0,1.074,1.0773,1.0793,1.0814,1.0938,1.1016,1.1032,1.1089,1.1095,1.1115,1.1172,1.1202,1.1353,1.1339,1.1359,1.1379,1.1527,1.1529,1.1531,1.1487,1.1485,1.1484,0,0,0,0,0,0,1.068,1.0786,1.0809,1.0873,1.0935,1.1027,1.1054,1.1086,1.1148,1.115,1.1219,1.1239,1.1303,1.1348,1.133,1.1435,1.1443,1.1449,1.1403,1.1402,1.1401,1.1389,1.1369,0,0,0,0,0,1.0674,1.0728,1.0818,1.0865,1.0895,1.0969,1.1005,1.1044,1.1112,1.1138,1.12,1.1265,1.1328,1.1368,1.143,1.1493,1.1516,1.1517,1.1516,1.1514,1.1519,1.1559,1.1561,1.1537,1.1537,1.1537,0,0,1.0663,1.0727,1.0757,1.0855,1.0908,1.0963,1.0991,1.1048,1.109,1.1147,1.1217,1.1265,1.1343,1.141,1.1443,1.1449,1.1531,1.1517,1.1515,1.152,1.1561,1.1563,1.1565,1.1538,1.1538,1.1537,0,0,1.067,1.0723,1.077,1.0823,1.0903,1.0953,1.0964,1.1053,1.1087,1.1158,1.1203,1.1255,1.136,1.1415,1.1456,1.1488,1.1519,1.1506,1.1501,1.1539,1.1541,1.1543,1.1557,1.156,1.151,1.151,1.151,0,1.0646,1.073,1.079,1.0846,1.0889,1.0944,1.0993,1.1042,1.1138,1.1167,1.1173,1.1309,1.1364,1.1447,1.1455,1.1486,1.1503,1.1496,1.1536,1.1538,1.1541,1.1555,1.156,1.1508,1.1509,1.1509,1.1509,0,1.0698,1.0756,1.0785,1.0876,1.0923,1.0975,1.1045,1.1085,1.1121,1.117,1.1244,1.1313,1.1392,1.1414,1.1449,1.1503,1.1505,1.1522,1.1532,1.1541,1.1555,1.156,1.1505,1.1506,1.1507,1.1507,0,0,1.067,1.0797,1.0806,1.085,1.0944,1.0991,1.1047,1.1123,1.1158,1.1223,1.1273,1.1362,1.138,1.1427,1.1469,1.1503,1.1527,1.1517,1.152,1.1518,1.1593,1.158,1.1585,1.1548,1.1549,1.155,1.1587,0,1.0692,1.0793,1.0851,1.0929,1.0985,1.104,1.1089,1.1153,1.1201,1.1257,1.1312,1.1375,1.1392,1.1422,1.1457,1.1516,1.1543,1.1514,1.1597,1.1599,1.1577,1.1592,1.1578,1.1609,1.1593,1.1594,1.1595,0,1.0729,1.0795,1.0878,1.0969,1.0995,1.1038,1.1115,1.1167,1.1242,1.1275,1.1329,1.1371,1.1435,1.144,1.153,1.1509,1.1546,1.1581,1.1584,1.1594,1.1598,1.1604,1.162,1.1625,1.1604,1.1603,1.1602,0,1.0703,1.0812,1.0877,1.0913,1.1019,1.1049,1.1095,1.1169,1.1213,1.128,1.131,1.1384,1.1424,1.1482,1.1544,1.1541,1.1629,1.1638,1.166,1.1658,1.1676,1.1674,1.1699,1.1698,1.1698,1.1698,1.1698,0,1.0721,1.0771,1.0867,1.0907,1.0966,1.1033,1.1089,1.114,1.1206,1.1258,1.131,1.1358,1.1437,1.1496,1.1545,1.1614,1.1631,1.1662,1.1674,1.1658,1.1654,1.1684,1.1684,1.1699,1.1699,1.1698,1.1698,0,1.0701,1.0767,1.0843,1.0938,1.0964,1.1003,1.1085,1.1128,1.118,1.1246,1.1265,1.1348,1.142,1.1488,1.1584,1.1618,1.1687,1.1703,1.1661,1.1669,1.1687,1.1685,1.1733,1.1744,1.1734,1.1734,1.1734,0,1.0709,1.0749,1.085,1.0889,1.0934,1.0995,1.1041,1.1109,1.1155,1.1245,1.1277,1.1353,1.1417,1.1531,1.16,1.1675,1.1694,1.1706,1.1705,1.1688,1.1696,1.1693,1.1699,1.1704,1.1704,1.1704,1.1704,0,1.0716,1.0748,1.0811,1.0887,1.094,1.1002,1.1067,1.1096,1.1177,1.1226,1.1301,1.1351,1.145,1.1526,1.161,1.1659,1.1696,1.1703,1.1713,1.1696,1.1672,1.1687,1.166,1.1702,1.1702,1.1702,1.1702,1.1702,1.0712,1.0751,1.0829,1.0899,1.0955,1.1015,1.106,1.1119,1.1182,1.1269,1.1306,1.1382,1.1459,1.1575,1.1624,1.1686,1.1694,1.1707,1.171,1.1713,1.171,1.1661,1.1701,1.1701,1.1701,1.1701,1.1702,0,1.0724,1.0777,1.084,1.093,1.0986,1.1016,1.109,1.1134,1.1201,1.1269,1.1333,1.142,1.1495,1.1571,1.165,1.1686,1.1705,1.1704,1.1703,1.1714,1.1698,1.1682,1.1688,1.1688,1.1688,1.1688,1.1688,1.1688,1.0736,1.0805,1.0846,1.0945,1.0999,1.1074,1.1114,1.117,1.1226,1.1321,1.1384,1.1433,1.1506,1.1592,1.1662,1.1683,1.1711,1.1706,1.1731,1.1714,1.1715,1.1715,1.1702,1.1711,1.1711,1.1743,1.1743,1.1744]},{"header":{"parameterUnit":"m.s-1","parameterCategory":1,"la1":30.2991,"la2":30.254,"lo1":-89.0895,"lo2":-89.0444,"dy":0.0017,"dx":0.0017,"nx":28,"ny":28,"refTime":"2024-05-27T03:00:00:Z","depth":0,"parameterNumber":3,"parameterNumberName":"V-component_of_WINDS"},"data":[0,0,0,0,0,0,0,0,0,0,0,0,0,0,0,0,0,0,0,0,0,0,0,0,0,0,0,0,0,0,0,0,0,0,0,0,0,0,0,0,0,0,0,0,0,0,0,0,0,0,0,0,0,0,0,0,0,0,4.6324,4.6326,0,4.6542,4.6545,4.6547,4.6586,4.6585,4.6583,4.6581,4.6794,4.6801,4.6809,0,0,0,0,0,0,0,0,0,0,0,0,0,4.5931,4.5938,4.6324,4.6327,4.6329,4.6542,4.6545,4.6548,4.6587,4.6584,4.6582,4.658,4.6792,4.6801,4.6809,0,0,0,0,0,0,0,0,0,0,0,0,0,4.612,4.594,4.6323,4.6375,4.6381,4.6541,4.6545,4.6549,4.6587,4.6584,4.6582,4.6579,4.6789,4.68,4.6811,4.6932,0,0,4.6844,4.6849,0,0,0,0,0,0,0,0,4.6109,4.6134,4.6364,4.6371,4.6379,4.6535,4.6484,4.6677,4.6588,4.6509,4.6581,4.6578,4.6709,4.6727,4.6773,4.6942,4.6951,4.6845,4.6852,4.6857,4.686,0,0,0,0,0,0,0,4.6096,4.6125,4.641,4.6367,4.6377,4.6383,4.6407,4.6521,4.6621,4.6515,4.6519,4.6545,4.6713,4.6762,4.6778,4.6954,4.6845,4.6855,4.6861,4.6866,4.7232,4.7235,0,0,0,0,0,0,4.6075,4.6114,4.6403,4.6416,4.6235,4.6393,4.6419,4.6487,4.662,4.6638,4.6547,4.6546,4.6745,4.6766,4.6786,4.6938,4.6856,4.6867,4.6873,4.7229,4.7233,4.7236,0,0,0,0,0,0,4.6067,4.6101,4.6394,4.6266,4.6304,4.6402,4.6478,4.6493,4.6543,4.6644,4.6661,4.658,4.6744,4.6771,4.6896,4.6946,4.6872,4.6882,4.7225,4.723,4.7235,4.7241,0,0,0,0,0,0,4.6055,4.6097,4.6147,4.6267,4.6311,4.6504,4.6481,4.6499,4.6563,4.6564,4.6679,4.6696,4.6744,4.6879,4.6907,4.6959,4.689,4.7221,4.7228,4.7233,4.7237,4.7245,4.7253,0,0,0,0,0,4.6041,4.6138,4.6149,4.6184,4.6376,4.6506,4.6531,4.6587,4.6567,4.6616,4.668,4.6692,4.6935,4.6892,4.6923,4.698,4.7218,4.7226,4.7233,4.7233,4.7244,4.7252,0,0,0,0,0,0,4.6017,4.6154,4.6169,4.6308,4.6396,4.6513,4.6577,4.6596,4.6689,4.6685,4.6748,4.6773,4.6896,4.6949,4.6899,4.7104,4.7075,4.7089,4.7065,4.7075,4.7083,4.7068,4.6899,0,0,0,0,0,4.6028,4.6126,4.624,4.6351,4.6395,4.6478,4.6537,4.6573,4.6665,4.6701,4.6775,4.6861,4.6957,4.7019,4.7112,4.7244,4.7269,4.7298,4.7306,4.7312,4.7323,4.7397,4.7411,4.7259,4.7259,4.7259,0,0,4.6051,4.6139,4.6196,4.6348,4.6421,4.6518,4.6509,4.6612,4.6685,4.6716,4.6841,4.6897,4.6997,4.7126,4.7186,4.7175,4.7371,4.7321,4.7325,4.7333,4.7406,4.742,4.7433,4.7264,4.7263,4.7263,0,0,4.6145,4.6221,4.6323,4.6396,4.6507,4.6562,4.6586,4.6701,4.6741,4.6868,4.6893,4.6978,4.7141,4.7212,4.7269,4.7389,4.7403,4.7417,4.7459,4.753,4.7542,4.7553,4.7597,4.7612,4.7428,4.7428,4.7428,0,4.6159,4.6311,4.6372,4.6476,4.6541,4.6577,4.668,4.6746,4.688,4.6923,4.6909,4.7116,4.7185,4.7332,4.7362,4.7406,4.7434,4.7405,4.7536,4.7548,4.7559,4.7601,4.7617,4.7429,4.7429,4.7428,4.7428,0,4.6324,4.6428,4.6496,4.663,4.6703,4.6805,4.6878,4.6944,4.6973,4.7028,4.7155,4.724,4.7352,4.7388,4.7416,4.7539,4.7529,4.7524,4.7497,4.7574,4.7614,4.7631,4.743,4.743,4.743,4.7429,0,0,4.6409,4.6576,4.66,4.6661,4.6786,4.6866,4.6968,4.7082,4.7137,4.7227,4.7314,4.7451,4.7449,4.7513,4.7549,4.7611,4.7702,4.7599,4.7602,4.7617,4.7843,4.7847,4.7865,4.7711,4.7714,4.7717,4.7835,0,4.6519,4.6709,4.6766,4.6923,4.702,4.7055,4.7144,4.7228,4.7281,4.7369,4.7426,4.7524,4.7512,4.7552,4.7615,4.7677,4.7748,4.7669,4.7791,4.7794,4.7768,4.7886,4.7891,4.7999,4.7851,4.7854,4.7856,0,4.6673,4.6771,4.6939,4.7052,4.7095,4.7175,4.7283,4.7367,4.7462,4.7496,4.7569,4.7599,4.7704,4.767,4.7815,4.776,4.7812,4.785,4.7856,4.7871,4.7831,4.7906,4.8035,4.8052,4.7881,4.7879,4.7877,0,4.6721,4.6893,4.7017,4.7068,4.7203,4.7258,4.7316,4.7409,4.7473,4.7566,4.7608,4.771,4.7766,4.7843,4.7899,4.7869,4.8039,4.8009,4.807,4.8069,4.8106,4.8104,4.8247,4.8136,4.8136,4.8136,4.8135,0,4.6839,4.694,4.7041,4.7117,4.7231,4.7294,4.7404,4.7463,4.7545,4.7631,4.7665,4.7743,4.7812,4.7899,4.7943,4.8057,4.8081,4.811,4.8121,4.8109,4.8106,4.8146,4.814,4.814,4.8139,4.8138,4.8137,0,4.6912,4.6984,4.7121,4.7238,4.727,4.7349,4.7448,4.7521,4.7576,4.7684,4.7712,4.7797,4.7902,4.7965,4.8095,4.8125,4.8251,4.8257,4.8221,4.8226,4.8284,4.8278,4.846,4.8487,4.8356,4.8357,4.8358,0,4.6984,4.7064,4.7191,4.7253,4.7313,4.7411,4.7478,4.7542,4.7609,4.7724,4.7783,4.789,4.798,4.8144,4.8216,4.8315,4.8326,4.8382,4.8341,4.8327,4.8329,4.8325,4.8333,4.839,4.8391,4.8392,4.8393,0,4.7105,4.7137,4.7234,4.7344,4.7424,4.7512,4.76,4.7648,4.7725,4.7799,4.7908,4.7978,4.8113,4.8219,4.8325,4.8381,4.84,4.8405,4.8425,4.8414,4.8391,4.8406,4.8242,4.8401,4.84,4.84,4.8399,4.8399,4.7181,4.7255,4.7356,4.7463,4.7537,4.7618,4.7694,4.7759,4.7853,4.7971,4.8001,4.8116,4.8207,4.8352,4.841,4.8498,4.8489,4.8517,4.8525,4.8532,4.8534,4.8375,4.8517,4.8517,4.8517,4.8517,4.8517,0,4.7305,4.7373,4.7471,4.7595,4.7678,4.7691,4.7789,4.7857,4.7959,4.8045,4.8133,4.8258,4.8361,4.844,4.8545,4.86,4.8611,4.8625,4.8623,4.8636,4.8535,4.8509,4.8615,4.8615,4.8615,4.8615,4.8615,4.8615,4.738,4.7506,4.7549,4.771,4.7775,4.7891,4.7946,4.802,4.8089,4.8229,4.8316,4.8368,4.8451,4.8561,4.8655,4.8675,4.8713,4.8726,4.8748,4.8653,4.8642,4.8632,4.8608,4.8733,4.8733,4.8841,4.8842,4.8843]}]]